Location: Dehesa de la Cepeda
(40.6574°N, 4.3013°W)
Time: 15:54:52
(UTC+00:00)

Transit 2A Rocket - Pass Details

Date: 03 August 2021
Orbit: 586 x 916 km, 66.7° (Epoch: 23 September)

Event Time Altitude Azimuth Distance (km) Brightness Sun altitude
Rises 22:46:10 0° 329° (NNW) 3,308 9.6 -27.8°
Reaches altitude 10° 22:48:31 10° 328° (NNW) 2,421 8.5 -28.0°
Enters shadow 22:54:02 80° 265° (W) 883 5.2 -28.5°
